Regional Weather Roundup
Issued by NWS

Home | Current Version | Previous Version | Text Only | Print | Product List | Glossary Off
Versions: 1 2 3 4 5 6 7 8 9 10 11 12 13 14 15 16 17 18 19 20 21 22 23 24 25 26 27 28 29 30 31 32 33 34 35 36 37 38 39 40 41 42 43 44 45 46 47 48 49 50

000
ASUS45 KCYS 011010
RWRWY

WYOMING REGIONAL WEATHER ROUNDUP
NATIONAL WEATHER SERVICE CHEYENNE WY
400 AM MDT WED APR 01 2015

NOTE:  "FAIR" INDICATES FEW OR NO CLOUDS BELOW 12,000 FEET
WITH NO SIGNIFICANT WEATHER AND/OR OBSTRUCTIONS TO VISIBILITY.

WYZ001-011100-
YELLOWSTONE NATIONAL PARK

CITY           SKY/WX    TMP DP  RH WIND       PRES   REMARKS
LK YELLOWSTONE NOT AVBL
W YELLOWSTONE  NOT AVBL

$$
WYZ002>013-054>058-071-098>099-011100-
NORTHERN WYOMING

CITY           SKY/WX    TMP DP  RH WIND       PRES   REMARKS
JACKSON        CLOUDY    39  18  41 S10       29.86F WCI  32
CODY           FAIR      41  34  75 N8        29.74R
GREYBULL       FAIR      51  34  52 NW14      29.64S
WORLAND        FAIR      47  31  53 CALM      29.66R
SHERIDAN       FAIR      47  35  63 NW21      29.70S
BUFFALO        FAIR      47  34  60 N22G38    29.68R
GILLETTE       CLOUDY    55  29  36 NW26G35   29.64R
HULETT         PTSUNNY   55  30  38 N13G18    29.65R
NEWCASTLE      FAIR      52  18  25 E3        29.58S

$$
WYZ014>020-022>026-101>103-011100-
CENTRAL WYOMING

CITY           SKY/WX    TMP DP  RH WIND       PRES   REMARKS
BIG PINEY      FAIR      36  21  54 N26G37    29.86S WCI  24
PINEDALE       FAIR      36  27  69 NW10      29.88R WCI  28
DUBOIS         CLOUDY    37  27  65 W24G36    29.80R WCI  26
LANDER         NOT AVBL
RIVERTON       FAIR      49  28  44 NW12      29.72S
CASPER         FAIR      48  20  32 SW9       29.69S
DOUGLAS        FAIR      49  22  34 NW9       29.66S

$$
WYZ021-027>030-104>119-011100-
SOUTHERN WYOMING

CITY           SKY/WX    TMP DP  RH WIND       PRES   REMARKS
EVANSTON       FAIR      37  26  64 W18       29.95R WCI  27
KEMMERER       FAIR      36  28  75 W20G25    29.90R WCI  25
ROCK SPRINGS   CLOUDY    46  29  51 W24       29.84S
DIXON          CLOUDY    48  21  34 W6        29.87S
RAWLINS        FAIR      45  19  35 W12       29.82R
SARATOGA       FAIR      45  19  36 SW10      29.84S
LARAMIE        FAIR      39  20  46 SW10      29.80F WCI  32
CHEYENNE       FAIR      51  24  34 W9        29.75F
TORRINGTON     FAIR      42  22  44 SE3       29.63F
PINE BLUFFS    FAIR      36  21  55 CALM      29.72F

$$


USA.gov is the U.S. government's official web portal to all federal, state and local government web resources and services.